Year,Month,Day,Hour,Minute,Value (Times are PST for temperature in C)
2009,07,16,00,00,14.20
2009,07,16,00,01,14.20
2009,07,16,00,02,14.20
2009,07,16,00,03,14.20
2009,07,16,00,04,14.20
2009,07,16,00,05,14.20
2009,07,16,00,06,14.20
2009,07,16,00,07,14.20
2009,07,16,00,08,14.20
2009,07,16,00,09,14.20
2009,07,16,00,10,14.20
2009,07,16,00,11,14.20
2009,07,16,00,12,14.20
2009,07,16,00,13,14.20
2009,07,16,00,14,14.20
2009,07,16,00,15,14.20
2009,07,16,00,16,14.20
2009,07,16,00,17,14.20
2009,07,16,00,18,14.20
2009,07,16,00,19,14.20
2009,07,16,00,20,14.10
2009,07,16,00,21,14.10
2009,07,16,00,22,14.10
2009,07,16,00,23,14.10
2009,07,16,00,24,14.10
2009,07,16,00,25,14.10
2009,07,16,00,26,14.10
2009,07,16,00,27,14.10
2009,07,16,00,28,14.10
2009,07,16,00,29,14.10
2009,07,16,00,30,14.10
2009,07,16,00,31,14.10
2009,07,16,00,32,14.10
2009,07,16,00,33,14.10
2009,07,16,00,34,14.10
2009,07,16,00,35,14.10
2009,07,16,00,36,14.20
2009,07,16,00,37,14.20
2009,07,16,00,38,14.20
2009,07,16,00,39,14.20
2009,07,16,00,40,14.20
2009,07,16,00,41,14.20
2009,07,16,00,42,14.20
2009,07,16,00,43,14.20
2009,07,16,00,44,14.20
2009,07,16,00,45,14.20
2009,07,16,00,46,14.20
2009,07,16,00,47,14.20
2009,07,16,00,48,14.20
2009,07,16,00,49,14.20
2009,07,16,00,50,14.20
2009,07,16,00,51,14.20
2009,07,16,00,52,14.20
2009,07,16,00,53,14.20
2009,07,16,00,54,14.20
2009,07,16,00,55,14.20
2009,07,16,00,56,14.20
2009,07,16,00,57,14.20
2009,07,16,00,58,14.20
2009,07,16,00,59,14.20
2009,07,16,01,00,14.20
2009,07,16,01,01,14.20
2009,07,16,01,02,14.20
2009,07,16,01,03,14.20
2009,07,16,01,04,14.20
2009,07,16,01,05,14.20
2009,07,16,01,06,14.20
2009,07,16,01,07,14.20
2009,07,16,01,08,14.20
2009,07,16,01,09,14.20
2009,07,16,01,10,14.20
2009,07,16,01,11,14.20
2009,07,16,01,12,14.20
2009,07,16,01,13,14.10
2009,07,16,01,14,14.10
2009,07,16,01,15,14.10
2009,07,16,01,16,14.10
2009,07,16,01,17,14.10
2009,07,16,01,18,14.00
2009,07,16,01,19,14.00
2009,07,16,01,20,14.00
2009,07,16,01,21,13.90
2009,07,16,01,22,13.90
2009,07,16,01,23,13.90
2009,07,16,01,24,13.80
2009,07,16,01,25,13.80
2009,07,16,01,26,13.80
2009,07,16,01,27,13.70
2009,07,16,01,28,13.70
2009,07,16,01,29,13.70
2009,07,16,01,30,13.70
2009,07,16,01,31,13.70
2009,07,16,01,32,13.70
2009,07,16,01,33,13.70
2009,07,16,01,34,13.70
2009,07,16,01,35,13.70
2009,07,16,01,36,13.70
2009,07,16,01,37,13.70
2009,07,16,01,38,13.70
2009,07,16,01,39,13.70
2009,07,16,01,40,13.70
2009,07,16,01,41,13.70
2009,07,16,01,42,13.70
2009,07,16,01,43,13.70
2009,07,16,01,44,13.70
2009,07,16,01,45,13.70
2009,07,16,01,46,13.70
2009,07,16,01,47,13.70
2009,07,16,01,48,13.80
2009,07,16,01,49,13.80
2009,07,16,01,50,13.80
2009,07,16,01,51,13.80
2009,07,16,01,52,13.80
2009,07,16,01,53,13.80
2009,07,16,01,54,13.80
2009,07,16,01,55,13.80
2009,07,16,01,56,13.80
2009,07,16,01,57,13.80
2009,07,16,01,58,13.80
2009,07,16,01,59,13.80
2009,07,16,02,00,13.80
2009,07,16,02,01,13.80
2009,07,16,02,02,13.80
2009,07,16,02,03,13.80
2009,07,16,02,04,13.80
2009,07,16,02,05,13.70
2009,07,16,02,06,13.70
2009,07,16,02,07,13.70
2009,07,16,02,08,13.70
2009,07,16,02,09,13.70
2009,07,16,02,10,13.70
2009,07,16,02,11,13.70
2009,07,16,02,12,13.70
2009,07,16,02,13,13.60
2009,07,16,02,14,13.60
2009,07,16,02,15,13.60
2009,07,16,02,16,13.60
2009,07,16,02,17,13.60
2009,07,16,02,18,13.60
2009,07,16,02,19,13.60
2009,07,16,02,20,13.50
2009,07,16,02,21,13.50
2009,07,16,02,22,13.50
2009,07,16,02,23,13.50
2009,07,16,02,24,13.50
2009,07,16,02,25,13.50
2009,07,16,02,26,13.50
2009,07,16,02,27,13.50
2009,07,16,02,28,13.50
2009,07,16,02,29,13.50
2009,07,16,02,30,13.60
2009,07,16,02,31,13.60
2009,07,16,02,32,13.60
2009,07,16,02,33,13.60
2009,07,16,02,34,13.60
2009,07,16,02,35,13.60
2009,07,16,02,36,13.60
2009,07,16,02,37,13.60
2009,07,16,02,38,13.60
2009,07,16,02,39,13.70
2009,07,16,02,40,13.70
2009,07,16,02,41,13.70
2009,07,16,02,42,13.70
2009,07,16,02,43,13.70
2009,07,16,02,44,13.70
2009,07,16,02,45,13.70
2009,07,16,02,46,13.70
2009,07,16,02,47,13.70
2009,07,16,02,48,13.70
2009,07,16,02,49,13.70
2009,07,16,02,50,13.70
2009,07,16,02,51,13.70
2009,07,16,02,52,13.80
2009,07,16,02,53,13.80
2009,07,16,02,54,13.80
2009,07,16,02,55,13.80
2009,07,16,02,56,13.80
2009,07,16,02,57,13.80
2009,07,16,02,58,13.80
2009,07,16,02,59,13.80
2009,07,16,03,00,13.80
2009,07,16,03,01,13.80
2009,07,16,03,02,13.80
2009,07,16,03,03,13.90
2009,07,16,03,04,13.90
2009,07,16,03,05,13.90
2009,07,16,03,06,13.90
2009,07,16,03,07,13.90
2009,07,16,03,08,13.90
2009,07,16,03,09,13.90
2009,07,16,03,10,13.90
2009,07,16,03,11,13.80
2009,07,16,03,12,13.80
2009,07,16,03,13,13.80
2009,07,16,03,14,13.80
2009,07,16,03,15,13.80
2009,07,16,03,16,13.80
2009,07,16,03,17,13.80
2009,07,16,03,18,13.80
2009,07,16,03,19,13.80
2009,07,16,03,20,13.80
2009,07,16,03,21,13.80
2009,07,16,03,22,13.80
2009,07,16,03,23,13.80
2009,07,16,03,24,13.80
2009,07,16,03,25,13.80
2009,07,16,03,26,13.70
2009,07,16,03,27,13.70
2009,07,16,03,28,13.70
2009,07,16,03,29,13.70
2009,07,16,03,30,13.70
2009,07,16,03,31,13.70
2009,07,16,03,32,13.70
2009,07,16,03,33,13.70
2009,07,16,03,34,13.70
2009,07,16,03,35,13.60
2009,07,16,03,36,13.60
2009,07,16,03,37,13.60
2009,07,16,03,38,13.60
2009,07,16,03,39,13.60
2009,07,16,03,40,13.60
2009,07,16,03,41,13.60
2009,07,16,03,42,13.60
2009,07,16,03,43,13.60
2009,07,16,03,44,13.60
2009,07,16,03,45,13.60
2009,07,16,03,46,13.60
2009,07,16,03,47,13.50
2009,07,16,03,48,13.50
2009,07,16,03,49,13.50
2009,07,16,03,50,13.50
2009,07,16,03,51,13.50
2009,07,16,03,52,13.50
2009,07,16,03,53,13.50
2009,07,16,03,54,13.50
2009,07,16,03,55,13.40
2009,07,16,03,56,13.40
2009,07,16,03,57,13.40
2009,07,16,03,58,13.40
2009,07,16,03,59,13.40
2009,07,16,04,00,13.40
2009,07,16,04,01,13.40
2009,07,16,04,02,13.40
2009,07,16,04,03,13.30
2009,07,16,04,04,13.30
2009,07,16,04,05,13.30
2009,07,16,04,06,13.30
2009,07,16,04,07,13.30
2009,07,16,04,08,13.30
2009,07,16,04,09,13.30
2009,07,16,04,10,13.30
2009,07,16,04,11,13.30
2009,07,16,04,12,13.30
2009,07,16,04,13,13.30
2009,07,16,04,14,13.30
2009,07,16,04,15,13.30
2009,07,16,04,16,13.30
2009,07,16,04,17,13.30
2009,07,16,04,18,13.20
2009,07,16,04,19,13.20
2009,07,16,04,20,13.20
2009,07,16,04,21,13.20
2009,07,16,04,22,13.20
2009,07,16,04,23,13.20
2009,07,16,04,24,13.20
2009,07,16,04,25,13.20
2009,07,16,04,26,13.20
2009,07,16,04,27,13.20
2009,07,16,04,28,13.20
2009,07,16,04,29,13.20
2009,07,16,04,30,13.20
2009,07,16,04,31,13.20
2009,07,16,04,32,13.20
2009,07,16,04,33,13.20
2009,07,16,04,34,13.20
2009,07,16,04,35,13.20
2009,07,16,04,36,13.10
2009,07,16,04,37,13.10
2009,07,16,04,38,13.20
2009,07,16,04,39,13.20
2009,07,16,04,40,13.20
2009,07,16,04,41,13.10
2009,07,16,04,42,13.10
2009,07,16,04,43,13.10
2009,07,16,04,44,13.10
2009,07,16,04,45,13.20
2009,07,16,04,46,13.20
2009,07,16,04,47,13.20
2009,07,16,04,48,13.20
2009,07,16,04,49,13.20
2009,07,16,04,50,13.20
2009,07,16,04,51,13.20
2009,07,16,04,52,13.20
2009,07,16,04,53,13.20
2009,07,16,04,54,13.20
2009,07,16,04,55,13.20
2009,07,16,04,56,13.20
2009,07,16,04,57,13.30
2009,07,16,04,58,13.30
2009,07,16,04,59,13.30
2009,07,16,05,00,13.30
2009,07,16,05,01,13.30
2009,07,16,05,02,13.30
2009,07,16,05,03,13.30
2009,07,16,05,04,13.30
2009,07,16,05,05,13.30
2009,07,16,05,06,13.30
2009,07,16,05,07,13.40
2009,07,16,05,08,13.40
2009,07,16,05,09,13.40
2009,07,16,05,10,13.40
2009,07,16,05,11,13.40
2009,07,16,05,12,13.40
2009,07,16,05,13,13.40
2009,07,16,05,14,13.40
2009,07,16,05,15,13.40
2009,07,16,05,16,13.40
2009,07,16,05,17,13.40
2009,07,16,05,18,13.40
2009,07,16,05,19,13.40
2009,07,16,05,20,13.40
2009,07,16,05,21,13.30
2009,07,16,05,22,13.30
2009,07,16,05,23,13.30
2009,07,16,05,24,13.30
2009,07,16,05,25,13.30
2009,07,16,05,26,13.30
2009,07,16,05,27,13.30
2009,07,16,05,28,13.30
2009,07,16,05,29,13.30
2009,07,16,05,30,13.30
2009,07,16,05,31,13.30
2009,07,16,05,32,13.30
2009,07,16,05,33,13.30
2009,07,16,05,34,13.30
2009,07,16,05,35,13.30
2009,07,16,05,36,13.30
2009,07,16,05,37,13.30
2009,07,16,05,38,13.30
2009,07,16,05,39,13.30
2009,07,16,05,40,13.30
2009,07,16,05,41,13.30
2009,07,16,05,42,13.30
2009,07,16,05,43,13.30
2009,07,16,05,44,13.30
2009,07,16,05,45,13.30
2009,07,16,05,46,13.30
2009,07,16,05,47,13.30
2009,07,16,05,48,13.30
2009,07,16,05,49,13.30
2009,07,16,05,50,13.30
2009,07,16,05,51,13.30
2009,07,16,05,52,13.30
2009,07,16,05,53,13.30
2009,07,16,05,54,13.30
2009,07,16,05,55,13.30
2009,07,16,05,56,13.30
2009,07,16,05,57,13.30
2009,07,16,05,58,13.30
2009,07,16,05,59,13.30
2009,07,16,06,00,13.30
2009,07,16,06,01,13.30
2009,07,16,06,02,13.40
2009,07,16,06,03,13.40
2009,07,16,06,04,13.40
2009,07,16,06,05,13.40
2009,07,16,06,06,13.40
2009,07,16,06,07,13.40
2009,07,16,06,08,13.50
2009,07,16,06,09,13.50
2009,07,16,06,10,13.50
2009,07,16,06,11,13.50
2009,07,16,06,12,13.50
2009,07,16,06,13,13.50
2009,07,16,06,14,13.60
2009,07,16,06,15,13.60
2009,07,16,06,16,13.60
2009,07,16,06,17,13.60
2009,07,16,06,18,13.60
2009,07,16,06,19,13.70
2009,07,16,06,20,13.70
2009,07,16,06,21,13.70
2009,07,16,06,22,13.70
2009,07,16,06,23,13.70
2009,07,16,06,24,13.70
2009,07,16,06,25,13.80
2009,07,16,06,26,13.80
2009,07,16,06,27,13.80
2009,07,16,06,28,13.90
2009,07,16,06,29,13.90
2009,07,16,06,30,13.90
2009,07,16,06,31,14.00
2009,07,16,06,32,14.00
2009,07,16,06,33,14.00
2009,07,16,06,34,14.00
2009,07,16,06,35,14.10
2009,07,16,06,36,14.10
2009,07,16,06,37,14.10
2009,07,16,06,38,14.20
2009,07,16,06,39,14.20
2009,07,16,06,40,14.20
2009,07,16,06,41,14.30
2009,07,16,06,42,14.30
2009,07,16,06,43,14.40
2009,07,16,06,44,14.40
2009,07,16,06,45,14.40
2009,07,16,06,46,14.50
2009,07,16,06,47,14.50
2009,07,16,06,48,14.60
2009,07,16,06,49,14.60
2009,07,16,06,50,14.60
2009,07,16,06,51,14.60
2009,07,16,06,52,14.70
2009,07,16,06,53,14.70
2009,07,16,06,54,14.70
2009,07,16,06,55,14.80
2009,07,16,06,56,14.80
2009,07,16,06,57,14.80
2009,07,16,06,58,14.80
2009,07,16,06,59,14.90
2009,07,16,07,00,15.00
2009,07,16,07,01,15.10
2009,07,16,07,02,15.10
2009,07,16,07,03,15.20
2009,07,16,07,04,15.30
2009,07,16,07,05,15.30
2009,07,16,07,06,15.40
2009,07,16,07,07,15.50
2009,07,16,07,08,15.60
2009,07,16,07,09,15.60
2009,07,16,07,10,15.70
2009,07,16,07,11,15.80
2009,07,16,07,12,15.80
2009,07,16,07,13,15.90
2009,07,16,07,14,16.00
2009,07,16,07,15,16.10
2009,07,16,07,16,16.10
2009,07,16,07,17,16.10
2009,07,16,07,18,16.10
2009,07,16,07,19,16.10
2009,07,16,07,20,16.10
2009,07,16,07,21,16.10
2009,07,16,07,22,16.10
2009,07,16,07,23,16.10
2009,07,16,07,24,16.10
2009,07,16,07,25,16.10
2009,07,16,07,26,16.10
2009,07,16,07,27,16.10
2009,07,16,07,28,16.20
2009,07,16,07,29,16.30
2009,07,16,07,30,16.40
2009,07,16,07,31,16.40
2009,07,16,07,32,16.40
2009,07,16,07,33,16.40
2009,07,16,07,34,16.40
2009,07,16,07,35,16.40
2009,07,16,07,36,16.40
2009,07,16,07,37,16.40
2009,07,16,07,38,16.40
2009,07,16,07,39,16.40
2009,07,16,07,40,16.40
2009,07,16,07,41,16.40
2009,07,16,07,42,16.40
2009,07,16,07,43,16.50
2009,07,16,07,44,16.60
2009,07,16,07,45,16.70
2009,07,16,07,46,16.70
2009,07,16,07,47,16.80
2009,07,16,07,48,16.70
2009,07,16,07,49,16.70
2009,07,16,07,50,16.60
2009,07,16,07,51,16.50
2009,07,16,07,52,16.40
2009,07,16,07,53,16.30
2009,07,16,07,54,16.30
2009,07,16,07,55,16.40
2009,07,16,07,56,16.40
2009,07,16,07,57,16.40
2009,07,16,07,58,16.40
2009,07,16,07,59,16.40
2009,07,16,08,00,16.50
2009,07,16,08,01,16.60
2009,07,16,08,02,16.70
2009,07,16,08,03,16.70
2009,07,16,08,04,16.70
2009,07,16,08,05,16.60
2009,07,16,08,06,16.70
2009,07,16,08,07,16.70
2009,07,16,08,08,16.50
2009,07,16,08,09,16.40
2009,07,16,08,10,16.40
2009,07,16,08,11,16.30
2009,07,16,08,12,16.30
2009,07,16,08,13,16.30
2009,07,16,08,14,16.20
2009,07,16,08,15,16.20
2009,07,16,08,16,16.20
2009,07,16,08,17,16.20
2009,07,16,08,18,16.10
2009,07,16,08,19,16.20
2009,07,16,08,20,16.20
2009,07,16,08,21,16.20
2009,07,16,08,22,16.20
2009,07,16,08,23,16.30
2009,07,16,08,24,16.30
2009,07,16,08,25,16.30
2009,07,16,08,26,16.10
2009,07,16,08,27,16.00
2009,07,16,08,28,15.80
2009,07,16,08,29,15.80
2009,07,16,08,30,15.70
2009,07,16,08,31,15.50
2009,07,16,08,32,15.40
2009,07,16,08,33,15.30
2009,07,16,08,34,15.40
2009,07,16,08,35,15.50
2009,07,16,08,36,15.50
2009,07,16,08,37,15.50
2009,07,16,08,38,15.50
2009,07,16,08,39,15.50
2009,07,16,08,40,15.60
2009,07,16,08,41,15.70
2009,07,16,08,42,15.80
2009,07,16,08,43,15.80
2009,07,16,08,44,15.90
2009,07,16,08,45,15.90
2009,07,16,08,46,16.10
2009,07,16,08,47,16.20
2009,07,16,08,48,16.40
2009,07,16,08,49,16.60
2009,07,16,08,50,16.80
2009,07,16,08,51,16.80
2009,07,16,08,52,16.90
2009,07,16,08,53,17.00
2009,07,16,08,54,17.10
2009,07,16,08,55,17.20
2009,07,16,08,56,17.20
2009,07,16,08,57,17.10
2009,07,16,08,58,17.00
2009,07,16,08,59,17.00
2009,07,16,09,00,16.90
2009,07,16,09,01,16.90
2009,07,16,09,02,17.00
2009,07,16,09,03,17.00
2009,07,16,09,04,17.00
2009,07,16,09,05,17.00
2009,07,16,09,06,17.00
2009,07,16,09,07,17.00
2009,07,16,09,08,17.10
2009,07,16,09,09,17.20
2009,07,16,09,10,17.30
2009,07,16,09,11,17.30
2009,07,16,09,12,17.40
2009,07,16,09,13,17.50
2009,07,16,09,14,17.60
2009,07,16,09,15,17.70
2009,07,16,09,16,17.80
2009,07,16,09,17,17.80
2009,07,16,09,18,17.90
2009,07,16,09,19,17.90
2009,07,16,09,20,17.90
2009,07,16,09,21,17.90
2009,07,16,09,22,17.90
2009,07,16,09,23,17.90
2009,07,16,09,24,17.90
2009,07,16,09,25,17.90
2009,07,16,09,26,17.90
2009,07,16,09,27,17.90
2009,07,16,09,28,17.90
2009,07,16,09,29,18.10
2009,07,16,09,30,18.10
2009,07,16,09,31,18.10
2009,07,16,09,32,18.10
2009,07,16,09,33,18.20
2009,07,16,09,34,18.10
2009,07,16,09,35,18.20
2009,07,16,09,36,18.10
2009,07,16,09,37,18.00
2009,07,16,09,38,18.00
2009,07,16,09,39,18.00
2009,07,16,09,40,17.90
2009,07,16,09,41,17.90
2009,07,16,09,42,17.70
2009,07,16,09,43,17.70
2009,07,16,09,44,17.70
2009,07,16,09,45,17.70
2009,07,16,09,46,17.70
2009,07,16,09,47,17.70
2009,07,16,09,48,17.80
2009,07,16,09,49,17.80
2009,07,16,09,50,17.80
2009,07,16,09,51,17.70
2009,07,16,09,52,17.70
2009,07,16,09,53,17.60
2009,07,16,09,54,17.60
2009,07,16,09,55,17.60
2009,07,16,09,56,17.80
2009,07,16,09,57,17.90
2009,07,16,09,58,17.70
2009,07,16,09,59,17.60
2009,07,16,10,00,17.60
2009,07,16,10,01,17.50
2009,07,16,10,02,17.40
2009,07,16,10,03,17.30
2009,07,16,10,04,17.30
2009,07,16,10,05,17.30
2009,07,16,10,06,17.30
2009,07,16,10,07,17.30
2009,07,16,10,08,17.30
2009,07,16,10,09,17.30
2009,07,16,10,10,17.30
2009,07,16,10,11,17.30
2009,07,16,10,12,17.20
2009,07,16,10,13,17.20
2009,07,16,10,14,17.10
2009,07,16,10,15,17.10
2009,07,16,10,16,17.30
2009,07,16,10,17,17.30
2009,07,16,10,18,17.30
2009,07,16,10,19,17.30
2009,07,16,10,20,17.30
2009,07,16,10,21,17.30
2009,07,16,10,22,17.30
2009,07,16,10,23,17.30
2009,07,16,10,24,17.30
2009,07,16,10,25,17.30
2009,07,16,10,26,17.30
2009,07,16,10,27,17.30
2009,07,16,10,28,17.30
2009,07,16,10,29,17.30
2009,07,16,10,30,17.30
2009,07,16,10,31,17.30
2009,07,16,10,32,17.30
2009,07,16,10,33,17.30
2009,07,16,10,34,17.20
2009,07,16,10,35,17.20
2009,07,16,10,36,17.20
2009,07,16,10,37,17.20
2009,07,16,10,38,17.30
2009,07,16,10,39,17.30
2009,07,16,10,40,17.30
2009,07,16,10,41,17.30
2009,07,16,10,42,17.40
2009,07,16,10,43,17.50
2009,07,16,10,44,17.70
2009,07,16,10,45,17.80
2009,07,16,10,46,17.80
2009,07,16,10,47,17.90
2009,07,16,10,48,17.90
2009,07,16,10,49,18.00
2009,07,16,10,50,18.20
2009,07,16,10,51,18.20
2009,07,16,10,52,18.30
2009,07,16,10,53,18.40
2009,07,16,10,54,18.50
2009,07,16,10,55,18.60
2009,07,16,10,56,18.80
2009,07,16,10,57,18.90
2009,07,16,10,58,18.90
2009,07,16,10,59,18.90
2009,07,16,11,00,18.90
2009,07,16,11,01,18.90
2009,07,16,11,02,18.90
2009,07,16,11,03,18.90
2009,07,16,11,04,19.00
2009,07,16,11,05,19.10
2009,07,16,11,06,19.00
2009,07,16,11,07,18.90
2009,07,16,11,08,18.80
2009,07,16,11,09,18.70
2009,07,16,11,10,18.70
2009,07,16,11,11,18.90
2009,07,16,11,12,18.80
2009,07,16,11,13,18.70
2009,07,16,11,14,18.50
2009,07,16,11,15,18.50
2009,07,16,11,16,18.50
2009,07,16,11,17,18.40
2009,07,16,11,18,18.40
2009,07,16,11,19,18.30
2009,07,16,11,20,18.30
2009,07,16,11,21,18.20
2009,07,16,11,22,18.20
2009,07,16,11,23,18.30
2009,07,16,11,24,18.40
2009,07,16,11,25,18.40
2009,07,16,11,26,18.40
2009,07,16,11,27,18.40
2009,07,16,11,28,18.30
2009,07,16,11,29,18.40
2009,07,16,11,30,18.60
2009,07,16,11,31,18.60
2009,07,16,11,32,18.70
2009,07,16,11,33,18.70
2009,07,16,11,34,18.70
2009,07,16,11,35,18.80
2009,07,16,11,36,18.90
2009,07,16,11,37,19.10
2009,07,16,11,38,19.20
2009,07,16,11,39,19.30
2009,07,16,11,40,19.30
2009,07,16,11,41,19.40
2009,07,16,11,42,19.40
2009,07,16,11,43,19.30
2009,07,16,11,44,19.40
2009,07,16,11,45,19.50
2009,07,16,11,46,19.60
2009,07,16,11,47,19.70
2009,07,16,11,48,19.80
2009,07,16,11,49,19.80
2009,07,16,11,50,19.90
2009,07,16,11,51,19.90
2009,07,16,11,52,20.00
2009,07,16,11,53,20.00
2009,07,16,11,54,20.10
2009,07,16,11,55,20.00
2009,07,16,11,56,19.90
2009,07,16,11,57,20.00
2009,07,16,11,58,20.20
2009,07,16,11,59,20.20
2009,07,16,12,00,20.10
2009,07,16,12,01,20.00
2009,07,16,12,02,19.90
2009,07,16,12,03,20.00
2009,07,16,12,04,20.10
2009,07,16,12,05,20.20
2009,07,16,12,06,20.10
2009,07,16,12,07,20.10
2009,07,16,12,08,20.20
2009,07,16,12,09,20.30
2009,07,16,12,10,20.30
2009,07,16,12,11,20.40
2009,07,16,12,12,20.50
2009,07,16,12,13,20.60
2009,07,16,12,14,20.80
2009,07,16,12,15,20.90
2009,07,16,12,16,20.90
2009,07,16,12,17,21.00
2009,07,16,12,18,20.90
2009,07,16,12,19,20.80
2009,07,16,12,20,20.60
2009,07,16,12,21,20.50
2009,07,16,12,22,20.50
2009,07,16,12,23,20.70
2009,07,16,12,24,20.80
2009,07,16,12,25,20.80
2009,07,16,12,26,20.80
2009,07,16,12,27,20.90
2009,07,16,12,28,21.10
2009,07,16,12,29,21.20
2009,07,16,12,30,21.30
2009,07,16,12,31,21.30
2009,07,16,12,32,21.40
2009,07,16,12,33,21.60
2009,07,16,12,34,21.80
2009,07,16,12,35,22.00
2009,07,16,12,36,22.20
2009,07,16,12,37,22.30
2009,07,16,12,38,22.50
2009,07,16,12,39,22.60
2009,07,16,12,40,22.70
2009,07,16,12,41,22.80
2009,07,16,12,42,23.00
2009,07,16,12,43,23.20
2009,07,16,12,44,23.30
2009,07,16,12,45,23.30
2009,07,16,12,46,23.30
2009,07,16,12,47,23.30
2009,07,16,12,48,23.40
2009,07,16,12,49,23.50
2009,07,16,12,50,23.60
2009,07,16,12,51,23.70
2009,07,16,12,52,23.70
2009,07,16,12,53,23.40
2009,07,16,12,54,23.00
2009,07,16,12,55,22.80
2009,07,16,12,56,22.70
2009,07,16,12,57,22.60
2009,07,16,12,58,22.30
2009,07,16,12,59,22.10
2009,07,16,13,00,21.90
2009,07,16,13,01,21.80
2009,07,16,13,02,21.80
2009,07,16,13,03,22.00
2009,07,16,13,04,22.10
2009,07,16,13,05,22.30
2009,07,16,13,06,22.50
2009,07,16,13,07,22.70
2009,07,16,13,08,23.00
2009,07,16,13,09,23.20
2009,07,16,13,10,23.40
2009,07,16,13,11,23.60
2009,07,16,13,12,23.80
2009,07,16,13,13,23.90
2009,07,16,13,14,24.10
2009,07,16,13,15,24.10
2009,07,16,13,16,24.20
2009,07,16,13,17,24.20
2009,07,16,13,18,24.40
2009,07,16,13,19,24.40
2009,07,16,13,20,24.40
2009,07,16,13,21,24.50
2009,07,16,13,22,24.50
2009,07,16,13,23,24.50
2009,07,16,13,24,24.50
2009,07,16,13,25,24.50
2009,07,16,13,26,24.50
2009,07,16,13,27,24.50
2009,07,16,13,28,24.40
2009,07,16,13,29,24.40
2009,07,16,13,30,24.40
2009,07,16,13,31,24.40
2009,07,16,13,32,24.50
2009,07,16,13,33,24.50
2009,07,16,13,34,24.60
2009,07,16,13,35,24.70
2009,07,16,13,36,24.70
2009,07,16,13,37,24.80
2009,07,16,13,38,24.90
2009,07,16,13,39,24.90
2009,07,16,13,40,25.00
2009,07,16,13,41,25.10
2009,07,16,13,42,25.10
2009,07,16,13,43,25.10
2009,07,16,13,44,25.00
2009,07,16,13,45,25.00
2009,07,16,13,46,24.90
2009,07,16,13,47,24.80
2009,07,16,13,48,24.70
2009,07,16,13,49,24.70
2009,07,16,13,50,24.80
2009,07,16,13,51,24.80
2009,07,16,13,52,24.80
2009,07,16,13,53,24.70
2009,07,16,13,54,24.70
2009,07,16,13,55,24.70
2009,07,16,13,56,24.60
2009,07,16,13,57,24.60
2009,07,16,13,58,24.60
2009,07,16,13,59,24.70
2009,07,16,14,00,24.80
2009,07,16,14,01,24.80
2009,07,16,14,02,24.90
2009,07,16,14,03,24.90
2009,07,16,14,04,24.90
2009,07,16,14,05,24.90
2009,07,16,14,06,24.90
2009,07,16,14,07,25.00
2009,07,16,14,08,25.00
2009,07,16,14,09,25.10
2009,07,16,14,10,25.20
2009,07,16,14,11,25.30
2009,07,16,14,12,25.40
2009,07,16,14,13,25.40
2009,07,16,14,14,25.40
2009,07,16,14,15,25.40
2009,07,16,14,16,25.40
2009,07,16,14,17,25.40
2009,07,16,14,18,25.40
2009,07,16,14,19,25.40
2009,07,16,14,20,25.40
2009,07,16,14,21,25.40
2009,07,16,14,22,25.30
2009,07,16,14,23,25.10
2009,07,16,14,24,25.10
2009,07,16,14,25,25.00
2009,07,16,14,26,24.90
2009,07,16,14,27,24.80
2009,07,16,14,28,24.90
2009,07,16,14,29,25.00
2009,07,16,14,30,25.00
2009,07,16,14,31,25.10
2009,07,16,14,32,25.10
2009,07,16,14,33,25.10
2009,07,16,14,34,25.00
2009,07,16,14,35,25.00
2009,07,16,14,36,24.90
2009,07,16,14,37,24.90
2009,07,16,14,38,24.90
2009,07,16,14,39,24.90
2009,07,16,14,40,24.80
2009,07,16,14,41,24.80
2009,07,16,14,42,24.90
2009,07,16,14,43,25.00
2009,07,16,14,44,25.00
2009,07,16,14,45,25.00
2009,07,16,14,46,25.10
2009,07,16,14,47,25.00
2009,07,16,14,48,25.00
2009,07,16,14,49,24.90
2009,07,16,14,50,24.90
2009,07,16,14,51,24.90
2009,07,16,14,52,24.90
2009,07,16,14,53,25.00
2009,07,16,14,54,25.00
2009,07,16,14,55,25.10
2009,07,16,14,56,25.00
2009,07,16,14,57,24.90
2009,07,16,14,58,24.80
2009,07,16,14,59,24.80
2009,07,16,15,00,24.70
2009,07,16,15,01,24.60
2009,07,16,15,02,24.60
2009,07,16,15,03,24.60
2009,07,16,15,04,24.70
2009,07,16,15,05,24.80
2009,07,16,15,06,24.80
2009,07,16,15,07,24.90
2009,07,16,15,08,24.90
2009,07,16,15,09,24.90
2009,07,16,15,10,24.90
2009,07,16,15,11,24.90
2009,07,16,15,12,25.00
2009,07,16,15,13,25.00
2009,07,16,15,14,25.00
2009,07,16,15,15,25.00
2009,07,16,15,16,25.10
2009,07,16,15,17,25.10
2009,07,16,15,18,25.20
2009,07,16,15,19,25.20
2009,07,16,15,20,25.40
2009,07,16,15,21,25.50
2009,07,16,15,22,25.50
2009,07,16,15,23,25.60
2009,07,16,15,24,25.70
2009,07,16,15,25,25.80
2009,07,16,15,26,25.80
2009,07,16,15,27,25.70
2009,07,16,15,28,25.70
2009,07,16,15,29,25.70
2009,07,16,15,30,25.80
2009,07,16,15,31,25.80
2009,07,16,15,32,25.90
2009,07,16,15,33,25.80
2009,07,16,15,34,25.80
2009,07,16,15,35,25.80
2009,07,16,15,36,25.90
2009,07,16,15,37,25.90
2009,07,16,15,38,26.00
2009,07,16,15,39,26.00
2009,07,16,15,40,26.00
2009,07,16,15,41,26.00
2009,07,16,15,42,26.00
2009,07,16,15,43,25.90
2009,07,16,15,44,25.90
2009,07,16,15,45,25.90
2009,07,16,15,46,25.90
2009,07,16,15,47,25.80
2009,07,16,15,48,25.70
2009,07,16,15,49,25.70
2009,07,16,15,50,25.70
2009,07,16,15,51,25.70
2009,07,16,15,52,25.80
2009,07,16,15,53,25.80
2009,07,16,15,54,25.80
2009,07,16,15,55,25.80
2009,07,16,15,56,25.80
2009,07,16,15,57,25.70
2009,07,16,15,58,25.70
2009,07,16,15,59,25.60
2009,07,16,16,00,25.60
2009,07,16,16,01,25.60
2009,07,16,16,02,25.60
2009,07,16,16,03,25.60
2009,07,16,16,04,25.70
2009,07,16,16,05,25.70
2009,07,16,16,06,25.80
2009,07,16,16,07,25.80
2009,07,16,16,08,25.80
2009,07,16,16,09,25.70
2009,07,16,16,10,25.70
2009,07,16,16,11,25.60
2009,07,16,16,12,25.70
2009,07,16,16,13,25.60
2009,07,16,16,14,25.60
2009,07,16,16,15,25.70
2009,07,16,16,16,25.70
2009,07,16,16,17,25.70
2009,07,16,16,18,25.60
2009,07,16,16,19,25.60
2009,07,16,16,20,25.70
2009,07,16,16,21,25.80
2009,07,16,16,22,25.80
2009,07,16,16,23,25.90
2009,07,16,16,24,25.90
2009,07,16,16,25,25.90
2009,07,16,16,26,25.90
2009,07,16,16,27,25.80
2009,07,16,16,28,25.80
2009,07,16,16,29,25.80
2009,07,16,16,30,25.70
2009,07,16,16,31,25.70
2009,07,16,16,32,25.70
2009,07,16,16,33,25.60
2009,07,16,16,34,25.60
2009,07,16,16,35,25.50
2009,07,16,16,36,25.40
2009,07,16,16,37,25.40
2009,07,16,16,38,25.40
2009,07,16,16,39,25.40
2009,07,16,16,40,25.30
2009,07,16,16,41,25.30
2009,07,16,16,42,25.20
2009,07,16,16,43,25.20
2009,07,16,16,44,25.20
2009,07,16,16,45,25.10
2009,07,16,16,46,25.00
2009,07,16,16,47,24.90
2009,07,16,16,48,24.80
2009,07,16,16,49,24.80
2009,07,16,16,50,24.80
2009,07,16,16,51,24.80
2009,07,16,16,52,24.80
2009,07,16,16,53,24.80
2009,07,16,16,54,24.80
2009,07,16,16,55,24.90
2009,07,16,16,56,25.00
2009,07,16,16,57,25.10
2009,07,16,16,58,25.10
2009,07,16,16,59,25.00
2009,07,16,17,00,25.00
2009,07,16,17,01,24.90
2009,07,16,17,02,24.90
2009,07,16,17,03,25.00
2009,07,16,17,04,25.00
2009,07,16,17,05,24.90
2009,07,16,17,06,24.90
2009,07,16,17,07,24.90
2009,07,16,17,08,24.90
2009,07,16,17,09,24.90
2009,07,16,17,10,24.80
2009,07,16,17,11,24.70
2009,07,16,17,12,24.70
2009,07,16,17,13,24.70
2009,07,16,17,14,24.70
2009,07,16,17,15,24.80
2009,07,16,17,16,24.80
2009,07,16,17,17,24.80
2009,07,16,17,18,24.80
2009,07,16,17,19,24.80